Location: Byszew
(52.1813°N, 19.2693°E)
Time: 07:18:53
(UTC+00:00)

NOAA 18 - Pass Details

Date: 08 July 2022
Orbit: 839 x 860 km, 98.9° (Epoch: 15 August)

Event Time Altitude Azimuth Distance (km) Brightness Sun altitude
Exits shadow 21:13:20 - 202° (SSW) 2,778 7.5 -12.6°
Reaches altitude 10° 21:14:12 10° 206° (SSW) 2,486 7.3 -12.6°
Maximum altitude 21:18:59 30° 266° (W) 1,508 6.7 -12.9°
Drops below altitude 10° 21:23:50 10° 327° (NNW) 2,509 9.0 -13.2°
Sets 21:26:32 0° 338° (NNW) 3,452 10.4 -13.3°
